Voltar ao catálogo

FREGAT R/B

LostHEO
NORAD 40297·ROCKET BODY·🇷🇺 Russia

Lançado Oct 30, 2014 de Plesetsk Cosmodrome

Loading…

Próximas Passagens (próximas 24 horas)

TLE

ObsoletoSource: Space-Track

Época: Oct 5, 2025, 06:54 UTC

1 40297U 14069B   25278.28752855 -.00001062  00000-0  00000-0 0  9998
2 40297  63.6601 230.8208 6735147 272.0727  18.3004  2.00511010 80104

Acompanhe FREGAT R/B em tempo real com AllMySat

Download on the App Store